CZ-6A DEB

Satellite information

Favourite Embed

Satellite Type and Status

DEBRISIN ORBIT

Key statistics

Satellite CZ-6A DEB at a glance.

Uptime

609

Days in orbit

Revolutions

≈ 14.3

Per day

Orbit

LEO

Low Earth Orbit

Inclination

86.0

Latest

Satellite identification and parameters

Extended collection of information and parameters for CZ-6A DEB.

Object identification

Identified? True

Debris? True

Object name: CZ-6A DEB

International designator: 2023-139E

Object number (NORAD): 57834

Object ID (CCSDS): 57834

Country: PEOPLES REPUBLIC OF CHINA (PRC)

Current information (Y/N): Y

RCS size: LARGE

Orbital parameters

Period: 100.839 minutes

Inclination: 85.9895 deg

SMA: 7176.503 km

Apoapsis: 808.283 km

Periapsis: 788.452 km

RAAN: 73.7035 deg

Eccentricy: 0.0013817

Argument of periapsis: 116.2201 deg

Mean anomaly: 244.0413 deg

Mean motion: 14.28017361 rev/day

Mean motion (dot): 0.00000516 rev/day2

B* drag term: 0.00020013 1/REarth

Two-line elements (TLE)

Creation date: May 10, 2025, 10:26 p.m.

Reference frame: TEME

Reference center: EARTH

Epoch: May 10, 2025, 1:58 p.m. UTC

TLE line 0: 0 CZ-6A DEB

TLE line 1: 1 57834U 23139E 25130.58214078 .00000516 00000-0 20013-3 0 9992

TLE line 2: 2 57834 85.9895 73.7035 0013817 116.2201 244.0413 14.28017361 86792

Live tracking on map

Real-time ground track for satellite CZ-6A DEB.

In-orbit conjunctions

There are no conjunctions computed for CZ-6A DEB, at the moment. Check back to stay up to date, as we update our databases every day.

Go to all conjunctions

Associated space launch

3 Chinese reconnaissance satellites of unknown purposes, officially reported as for "Electromagnetic environment probing" purposes.

CZ-6A DEB was lifted into orbit during the mission ‘Long March 6A | Yaogan 40’, on board a Long March 6A space rocket.

The launch took place on Sept. 10, 2023, 4:30 a.m. from Launch Complex 9A.

For more information about the launch, click the button.

Launch to space Long March 6A | Yaogan 40
Long March 6A | Yaogan 40

Agency: N/A

Status: Launch Successful

Launch date: Sept. 10, 2023, 4:30 a.m. UTC

Rocket: Long March 6A

Launch pad: Launch Complex 9A

Location: Taiyuan Satellite Launch Center, People's Republic of China

...

Latest news about this satellite

There are no fresh news available about this satellite. Check back as we update our databases every day.


Newsletter sign-up

Weekly statistics, charts and insights to help you stay on top of the space industry.